User: anonymous   Login
Location: Newark
(48.5667°N, 12.8167°E)
Time: 07:50:45
(UTC+00:00)
Language:

CAS-4B - Orbit

View from above orbital plane
View from above orbital plane
View from above satellite
View from above satellite

Ground track
Ground track

The orbit data is extracted from the following two-line orbital elements,

1 42759U 17034B   19316.89620208 +.00000001 +00000-0 +13590-4 0  9990
2 42759 043.0168 142.2480 0010282 096.6118 040.2987 15.09677871133082
Epoch (UTC): 12 November 2019 21:30:31
Eccentricity: 0.0010282
inclination: 43.0168°
perigee height: 530 km
apogee height: 544 km
right ascension of ascending node: 142.2480°
argument of perigee: 96.6118°
revolutions per day: 15.09677871
mean anomaly at epoch: 40.2987°
orbit number at epoch: 13308

The dashed part of the orbit path shows where the satellite is in the earth's shadow,  

DLR